TimeCST,TemperatureF,Dew PointF,Humidity,Sea Level PressureIn,VisibilityMPH,Wind Direction,Wind SpeedMPH,Gust SpeedMPH,PrecipitationIn,Events,Conditions,WindDirDegrees,DateUTC
12:12 AM,33.8,32.0,93,29.98,2.0,SSE,15.0,-,0.04,,Overcast,160,2013-03-09 06:12:00
12:33 AM,35.6,32.0,87,29.96,1.8,SSE,16.1,-,0.14,Snow,Snow,150,2013-03-09 06:33:00
12:53 AM,33.8,32.0,93,29.95,3.0,SE,16.1,21.9,0.21,,Overcast,130,2013-03-09 06:53:00
1:13 AM,33.8,32.0,93,29.95,3.0,SE,16.1,20.7,N/A,,Overcast,140,2013-03-09 07:13:00
1:32 AM,33.8,32.0,93,29.94,2.5,SE,12.7,17.3,0.01,,Overcast,140,2013-03-09 07:32:00
1:53 AM,33.8,32.0,93,29.93,2.5,SE,13.8,18.4,0.01,,Overcast,140,2013-03-09 07:53:00
2:12 AM,33.8,32.0,93,29.91,3.0,SSE,13.8,-,N/A,,Overcast,150,2013-03-09 08:12:00
2:33 AM,33.8,32.0,93,29.90,2.5,SSE,12.7,18.4,0.02,,Overcast,150,2013-03-09 08:33:00
2:53 AM,33.8,32.0,93,29.88,3.0,SSE,13.8,-,0.03,,Overcast,150,2013-03-09 08:53:00
3:12 AM,33.8,32.0,93,29.87,3.0,SSE,12.7,-,N/A,,Overcast,150,2013-03-09 09:12:00
3:33 AM,33.8,32.0,93,29.86,3.0,SSE,10.4,-,N/A,,Overcast,150,2013-03-09 09:33:00
3:53 AM,33.8,32.0,93,29.86,3.0,SSE,11.5,-,0.01,,Overcast,150,2013-03-09 09:53:00
4:12 AM,33.8,32.0,93,29.86,3.0,SSE,11.5,-,0.01,,Overcast,150,2013-03-09 10:12:00
4:33 AM,33.8,32.0,93,29.85,3.0,SSE,11.5,-,0.03,,Overcast,160,2013-03-09 10:33:00
4:53 AM,35.6,33.8,93,29.84,4.0,SSE,16.1,-,0.03,,Drizzle,160,2013-03-09 10:53:00
5:12 AM,35.6,33.8,93,29.83,4.0,SSE,15.0,20.7,0.01,Rain,Rain,160,2013-03-09 11:12:00
5:33 AM,35.6,33.8,93,29.83,4.0,SSE,13.8,-,0.01,Rain,Rain,160,2013-03-09 11:33:00
5:53 AM,35.6,33.8,93,29.82,3.0,SSE,15.0,19.6,0.02,,Drizzle,160,2013-03-09 11:53:00
6:12 AM,35.6,33.8,93,29.81,2.5,SSE,13.8,-,0.01,Rain,Light Rain,160,2013-03-09 12:12:00
6:33 AM,35.6,33.8,93,29.80,1.8,SSE,17.3,20.7,0.05,Rain,Rain,160,2013-03-09 12:33:00
6:52 AM,35.6,33.8,93,29.80,2.5,SSE,15.0,-,0.06,,Overcast,160,2013-03-09 12:52:00
7:12 AM,35.6,33.8,93,29.80,1.8,SSE,15.0,-,N/A,,Overcast,150,2013-03-09 13:12:00
7:33 AM,35.6,33.8,93,29.79,1.5,SE,9.2,-,N/A,,Overcast,140,2013-03-09 13:33:00
7:52 AM,33.8,32.0,93,29.77,0.2,SE,12.7,-,N/A,Fog,Fog,140,2013-03-09 13:52:00
8:12 AM,33.8,32.0,93,29.77,0.2,SSE,13.8,20.7,N/A,Fog,Fog,150,2013-03-09 14:12:00
8:33 AM,33.8,32.0,93,29.78,0.2,SSE,11.5,-,N/A,Fog,Fog,150,2013-03-09 14:33:00
8:52 AM,33.8,32.0,93,29.76,0.5,SE,10.4,-,0.03,Rain,Rain,140,2013-03-09 14:52:00
9:12 AM,33.8,32.0,93,29.76,1.0,SSE,13.8,-,0.06,Rain,Rain,150,2013-03-09 15:12:00
9:33 AM,35.6,33.8,93,29.75,2.5,SSE,12.7,17.3,0.11,Rain,Light Rain,150,2013-03-09 15:33:00
9:52 AM,35.6,33.8,93,29.73,1.5,SE,10.4,-,0.13,Rain,Rain,140,2013-03-09 15:52:00
10:12 AM,35.6,33.8,93,29.73,2.5,SE,11.5,-,0.01,Rain,Light Rain,140,2013-03-09 16:12:00
10:33 AM,35.6,33.8,93,29.72,1.8,SE,11.5,-,0.03,Rain,Light Rain,140,2013-03-09 16:33:00
10:52 AM,35.6,33.8,93,29.71,1.2,SE,10.4,-,0.08,Rain,Heavy Rain,140,2013-03-09 16:52:00
11:12 AM,35.6,33.8,93,29.71,1.2,SSE,9.2,-,0.04,Rain,Rain,150,2013-03-09 17:12:00
11:33 AM,35.6,33.8,93,29.71,1.8,SSE,6.9,-,0.09,Rain,Rain,160,2013-03-09 17:33:00
11:52 AM,35.6,33.8,93,29.70,1.8,SSE,11.5,17.3,0.13,Rain,Rain,150,2013-03-09 17:52:00
12:13 PM,35.6,33.8,93,29.68,1.2,SSE,9.2,-,0.08,Rain,Heavy Rain,150,2013-03-09 18:13:00
12:32 PM,35.6,33.8,93,29.67,2.0,SSE,12.7,-,0.13,Rain,Light Rain,160,2013-03-09 18:32:00
12:53 PM,37.4,35.6,93,29.66,2.5,South,8.1,-,0.14,,Light Drizzle,170,2013-03-09 18:53:00
1:12 PM,37.4,35.6,93,29.66,4.0,SSE,11.5,-,N/A,,Light Drizzle,160,2013-03-09 19:12:00
1:32 PM,37.4,35.6,93,29.66,1.2,South,10.4,-,0.03,Rain,Rain,180,2013-03-09 19:32:00
1:53 PM,37.4,35.6,93,29.66,3.0,South,5.8,-,0.04,,Overcast,190,2013-03-09 19:53:00
2:12 PM,35.6,33.8,93,29.65,1.0,SSW,3.5,-,N/A,,Overcast,210,2013-03-09 20:12:00
2:32 PM,35.6,33.8,93,29.65,0.2,Calm,Calm,-,N/A,Fog,Fog,0,2013-03-09 20:32:00
2:53 PM,35.6,35.6,100,29.65,0.2,Calm,Calm,-,N/A,Fog,Fog,0,2013-03-09 20:53:00
3:12 PM,35.6,33.8,93,29.64,0.2,SE,5.8,-,N/A,Fog,Fog,130,2013-03-09 21:12:00
3:32 PM,35.6,33.8,93,29.64,0.2,SE,5.8,-,N/A,Fog,Fog,130,2013-03-09 21:32:00
3:53 PM,35.6,35.6,100,29.64,0.2,SE,6.9,-,N/A,Fog,Fog,140,2013-03-09 21:53:00
4:12 PM,37.4,35.6,93,29.64,0.5,SSE,5.8,-,N/A,Fog,Fog,150,2013-03-09 22:12:00
4:32 PM,37.4,35.6,93,29.64,0.5,SSE,5.8,-,N/A,Fog,Fog,150,2013-03-09 22:32:00
4:53 PM,37.4,35.6,93,29.65,0.2,SSE,5.8,-,N/A,Fog,Fog,150,2013-03-09 22:53:00
5:11 PM,37.4,35.6,93,29.65,0.2,Calm,Calm,-,N/A,Fog,Fog,0,2013-03-09 23:11:00
5:33 PM,35.6,33.8,93,29.65,0.2,NNW,5.8,-,N/A,Fog,Fog,330,2013-03-09 23:33:00
5:53 PM,35.6,33.8,93,29.66,0.2,NNW,6.9,-,N/A,Fog,Fog,330,2013-03-09 23:53:00
6:12 PM,35.6,33.8,93,29.68,1.2,NNW,8.1,-,N/A,,Overcast,340,2013-03-10 00:12:00
6:33 PM,35.6,33.8,93,29.69,2.5,North,5.8,-,N/A,,Overcast,350,2013-03-10 00:33:00
6:53 PM,33.8,33.8,100,29.71,2.5,North,4.6,-,N/A,,Overcast,350,2013-03-10 00:53:00
7:12 PM,33.8,32.0,93,29.71,2.0,NNW,9.2,-,N/A,,Light Drizzle,340,2013-03-10 01:12:00
7:33 PM,33.8,32.0,93,29.71,1.5,NNW,13.8,19.6,0.01,Rain,Light Rain,330,2013-03-10 01:33:00
7:52 PM,33.8,32.0,93,29.72,2.0,NNW,11.5,19.6,0.02,,Overcast,330,2013-03-10 01:52:00
8:12 PM,33.8,32.0,93,29.75,2.0,NW,12.7,20.7,0.06,Snow,Snow,310,2013-03-10 02:12:00
8:33 PM,33.8,32.0,93,29.77,2.5,NW,9.2,20.7,0.15,Snow,Light Snow,320,2013-03-10 02:33:00
8:52 PM,33.8,32.0,93,29.73,2.5,NNW,12.7,21.9,0.19,Snow,Light Snow,340,2013-03-10 02:52:00
9:12 PM,32.0,32.0,100,29.74,3.0,NNW,12.7,20.7,0.03,Snow,Snow,340,2013-03-10 03:12:00
9:33 PM,32.0,32.0,100,29.75,4.0,NNW,12.7,-,0.06,,Overcast,340,2013-03-10 03:33:00
9:52 PM,32.0,32.0,100,29.76,5.0,NNW,13.8,25.3,0.06,,Overcast,340,2013-03-10 03:52:00
10:12 PM,32.0,32.0,100,29.77,7.0,NNW,12.7,19.6,N/A,,Overcast,340,2013-03-10 04:12:00
10:33 PM,32.0,32.0,100,29.76,7.0,North,15.0,21.9,N/A,,Overcast,350,2013-03-10 04:33:00
10:52 PM,32.0,32.0,100,29.77,7.0,NNW,15.0,20.7,N/A,,Overcast,340,2013-03-10 04:52:00
11:12 PM,32.0,32.0,100,29.79,4.0,NNW,13.8,20.7,N/A,Snow,Light Snow,340,2013-03-10 05:12:00
11:33 PM,32.0,32.0,100,29.76,1.0,NNW,15.0,20.7,N/A,Snow,Light Snow,340,2013-03-10 05:33:00
11:52 PM,32.0,32.0,100,29.76,1.2,North,16.1,-,N/A,Snow,Light Snow,350,2013-03-10 05:52:00